Regional Weather Roundup
Issued by NWS

Home | Current Version | Previous Version | Text Only | Print | Product List | Glossary On
Versions: 1 2 3 4 5 6 7 8 9 10 11 12 13 14 15 16 17 18 19 20 21 22 23 24 25 26 27 28 29 30 31 32 33 34 35 36 37 38 39 40 41 42 43 44 45 46 47 48 49 50
000
ASUS43 KMKX 201700
RWRWI

WISCONSIN REGIONAL WEATHER ROUNDUP
NATIONAL WEATHER SERVICE MILWAUKEE/SULLIVAN WI
1200 PM CDT WED AUG 20 2014

NOTE: "FAIR" INDICATES FEW OR NO CLOUDS BELOW 12,000 FEET WITH NO
SIGNIFICANT WEATHER AND/OR OBSTRUCTIONS TO VISIBILITY.

WIZ001-002-006>008-014>016-023>028-201800-
NORTHWEST WISCONSIN

CITY           SKY/WX    TMP DP  RH WIND       PRES   REMARKS
SUPERIOR ARPT  CLOUDY    67  63  84 S3        29.90S
ASHLAND        CLOUDY    68  60  75 CALM      29.91R
HAYWARD        CLOUDY    67  59  75 CALM      29.92S
SIREN          SUNNY     70  60  70 E7        29.89F
RICE LAKE      MOSUNNY   71  59  66 NE10      29.90F
LADYSMITH      CLOUDY    67  60  78 CALM      29.93S
EAU CLAIRE     MOSUNNY   72  62  71 E8        29.89S
MENOMONIE      MOSUNNY   73  61  65 SE7       29.90R
NEW RICHMOND   SUNNY     71  63  76 E3        29.90R
OSCEOLA        SUNNY     72  64  76 CALM      29.91R
$$

WIZ003>005-009-010-017-018-201800-
NORTH CENTRAL WISCONSIN

CITY           SKY/WX    TMP DP  RH WIND       PRES   REMARKS
WOODRUFF       CLOUDY    72  63  72 NE5       29.91S
RHINELANDER    CLOUDY    65  58  78 N3        29.92R
EAGLE RIVER    CLOUDY    65  57  73 NW3       29.90S
LAND O LAKES   CLOUDY    66  58  76 N9        29.91F
PHILLIPS       CLOUDY    64  59  83 CALM      29.92R
TOMAHAWK       CLOUDY    65  58  79 CALM      29.92R
MEDFORD        CLOUDY    66  60  81 NW5       29.91S
MERRILL        CLOUDY    66  61  85 CALM      29.91S
$$

WIZ029-030-035-036-043>047-201800-
CENTRAL WISCONSIN

CITY           SKY/WX    TMP DP  RH WIND       PRES   REMARKS
WAUSAU         CLOUDY    67  59  75 CALM      29.89S
MOSINEE        CLOUDY    64  63  94 CALM      29.92S
MARSHFIELD     CLOUDY    66  60  81 CALM      29.92R
STEVENS POINT  CLOUDY    63  58  85 CALM      29.91R
WAUPACA        CLOUDY    69  62  78 NW5       29.90S
WAUTOMA        NOT AVBL
WISC RAPIDS    PTSUNNY   70  61  73 VRB6      29.93R
CAMP DOUGLAS   NOT AVBL
$$

WIZ011>013-019>022-031-037>040-048>050-201800-
NORTHEAST WISCONSIN

CITY           SKY/WX    TMP DP  RH WIND       PRES   REMARKS
ANTIGO         CLOUDY    65  60  82 CALM      29.91S
STURGEON BAY   CLOUDY    64  59  82 N3        29.90R
GREEN BAY      CLOUDY    67  61  81 N6        29.88F
MANITOWOC      NOT AVBL
APPLETON       PTSUNNY   70  63  78 NW6       29.89S
CLINTONVILLE   CLOUDY    66  59  77 NW6       29.89S
OSHKOSH        PTSUNNY   74  65  73 NE6       29.89R
$$

WIZ032>034-041-042-053>061-201800-
SOUTHWEST WISCONSIN

CITY           SKY/WX    TMP DP  RH WIND       PRES   REMARKS
LA CROSSE      SUNNY     79  66  64 CALM      29.88F HX  81
SPARTA         MOSUNNY   75  62  62 W6        29.90S
VIROQUA        FAIR      77  65  66 W6        29.92S
BOSCOBEL       MOSUNNY   84  66  54 SW10      29.89S HX  86
PRAIRIE DU CHI PTSUNNY   79  66  63 SW7       29.90S HX  81
PLATTEVILLE    FAIR      78  69  76 SW8       29.93R
$$

WIZ056-057-062-063-064-067-068-201800-
SOUTH CENTRAL WISCONSIN

CITY           SKY/WX    TMP DP  RH WIND       PRES   REMARKS
BARABOO/DELLS  PTSUNNY   78  62  56 NW9       29.90R HX  80
LONE ROCK      NOT AVBL
WATERTOWN      PTSUNNY   77  66  69 W7        29.89R
MADISON        MOSUNNY   81  64  56 VRB5      29.89S HX  82
MIDDLETON      FAIR      81  65  57 W9        29.90R HX  83
MONROE         PTSUNNY   79  68  69 SW10      29.91R HX  81
JANESVILLE     SUNNY     84  63  48 W12       29.89R HX  85
$$

WIZ051-052-058>065-066-070>072-201800-
SOUTHEAST WISCONSIN

CITY           SKY/WX    TMP DP  RH WIND       PRES   REMARKS
MILWAUKEE      MOSUNNY   77  63  61 W9        29.88R
WAUKESHA       PTSUNNY   75  63  64 W8        29.90R
MILWAUKEE/TIMM NOT AVBL
RACINE         SUNNY     79  64  60 W8        29.90R HX  81
BURLINGTON     SUNNY     78  64  61 NW8       29.89S HX  80
KENOSHA        MOSUNNY   80  65  59 W9        29.89R HX  82
FOND DU LAC    CLOUDY    73  64  73 VRB7      29.89R
SHEBOYGAN      CLOUDY    75  63  66 NW8       29.88S
WEST BEND      PTSUNNY   73  63  68 NW5       29.88S
JUNEAU         MOSUNNY   75  39  27 W3        29.90R
$$

LSZ147-162-201800-
LAKE SUPERIOR

STATION/POSITION TIME  TEMP    WIND        PRES    WAVE
                       AIR SEA DIR/SP/G            HT/PER
                 (UTC) (F)     (DEG/KT/KT) (MB)    (FT/S)
W MID LAKE BUOY  1550   58 56  270/  6/  6 1012.1R   1
DEVILS ISLAND    1600   63     260/  3/  6 1012.1F
PORT WING        1640   64     320/  4/  4 1012.9R
SAXON HARBOR     1640   65        CALM     1012.9R
$$

LMZ867-665-643>646-201800-
LAKE MICHIGAN

STATION/POSITION TIME  TEMP    WIND        PRES    WAVE
                       AIR SEA DIR/SP/G            HT/PER
                 (UTC) (F)     (DEG/KT/KT) (MB)    (FT/S)
N MID LAKE BUOY  1550   61 62  310/  6/  8 1010.3R   1/ 3
NORTHPORT PIER   1600   63     330/  4/  5 1011.2R
SISTER BAY       1626   66     350/  7/  8   N/A
KEWAUNEE LAKESHO 1600   65      90/  2/  4 1011.0R
SHEBOYGAN LAKESH 1600   65 64   50/  8/  8 1011.4R
ATWATER BUOY     1600   69      80/  6     1012.6R
MILWAUKEE LAKESH 1600   70      70/  5/  5   N/A
S MID LAKE BUOY  1550   68 67  280/  2/  4 1011.7R   0
KENOSHA   LAKESH 1600   78     310/ 10/ 12 1011.2S
$$

TC  - TEMPERATURE IN CELSIUS
VSB - VISIBILITY IN STATUTE MILES
WCI - WIND CHILL INDEX
HX  - HEAT INDEX



USA.gov is the U.S. government's official web portal to all federal, state and local government web resources and services.